Nampa, ID

4:27 AM MST on November 22, 2017 (GMT -0700)
Nampa

Weather History for KMAN - October, 2012

Change the Weather History Date:

Saturday, October 20, 2012

  Actual Average (KBOI) Record (KBOI)
Temperature  
Mean Temperature 53 °F -  
Max Temperature 62 °F 64 °F 84 °F (2003)
Min Temperature 44 °F 38 °F 20 °F (1990)
Degree Days  
Heating Degree Days 12    
Growing Degree Days 3 (Base 50)    
Moisture  
Dew Point 38 °F    
Average Humidity 62    
Maximum Humidity 100    
Minimum Humidity 32    
Precipitation  
Precipitation 0.00 in - - ()
Sea Level Pressure  
Sea Level Pressure 29.82 in    
Wind  
Wind Speed 6 mph (NW)    
Max Wind Speed 14 mph    
Max Gust Speed 23 mph    
Visibility 10 miles    
Events      
Averages and records for this station are not official NWS values.
T = Trace of Precipitation, MM = Missing Value Source: NWS Daily Summary

Daily Weather History Graph

Daily Weather History Graph

Search for Another Location

Airport or City:

Trip Planner

Search our weather history database for the weather conditions in past years. The results will help you decide how hot, cold, wet, or windy it might be!

Date:

Astronomy

Oct. 20, 2012 Rise Set
Actual Time 8:07 AM MDT 6:53 PM MDT
Civil Twilight 7:37 AM MDT 7:22 PM MDT
Nautical Twilight 7:04 AM MDT 7:56 PM MDT
Astronomical Twilight 6:31 AM MDT 8:29 PM MDT
Moon 1:51 PM MDT (10/20) 11:40 PM MDT (10/20)
Length of Visible Light 11h 44m
Length of Day
10h 46m
Waxing Crescent, 35% of the Moon is Illuminated
Oct 20
Waxing Crescent
Oct 21
First Quarter
Oct 29
Full
Nov 6
Last Quarter
Nov 13
New

Hourly Weather History & Observations

Time (MDT) Temp. Windchill Dew Point Humidity Pressure Visibility Wind Dir Wind Speed Gust Speed Precip Events Conditions
12:15 AM 50.0 °F - 41.0 °F 71% 29.80 in 10.0 mi WNW 5.8 mph - N/A   Overcast
12:55 AM 50.0 °F - 41.0 °F 71% 29.79 in 10.0 mi WNW 3.5 mph - N/A   Overcast
1:15 AM 50.0 °F - 41.0 °F 71% 29.80 in 10.0 mi WNW 3.5 mph - N/A   Overcast
1:35 AM 50.0 °F - 41.0 °F 71% 29.81 in 10.0 mi WNW 8.1 mph - N/A   Overcast
1:55 AM 50.0 °F - 39.2 °F 66% 29.81 in 10.0 mi North 8.1 mph - N/A   Mostly Cloudy
2:15 AM 50.0 °F - 39.2 °F 66% 29.82 in 10.0 mi NW 3.5 mph - N/A   Overcast
2:55 AM 48.2 °F - 41.0 °F 76% 29.82 in 10.0 mi Calm Calm - N/A   Overcast
3:15 AM 48.2 °F - 41.0 °F 76% 29.82 in 10.0 mi ESE 4.6 mph - N/A   Mostly Cloudy
3:55 AM 48.2 °F - 41.0 °F 76% 29.81 in 9.0 mi ESE 4.6 mph - N/A   Overcast
4:15 AM 48.2 °F - 42.8 °F 82% 29.81 in 6.0 mi ESE 4.6 mph - N/A   Overcast
4:35 AM 48.2 °F - 46.4 °F 93% 29.81 in 9.0 mi Calm Calm - N/A   Overcast
4:55 AM 48.2 °F - 46.4 °F 93% 29.80 in 7.0 mi NE 4.6 mph - N/A   Overcast
5:15 AM 48.2 °F - 46.4 °F 93% 29.81 in 10.0 mi ESE 3.5 mph - N/A   Overcast
5:35 AM 48.2 °F - 48.2 °F 100% 29.81 in 9.0 mi Calm Calm - N/A   Overcast
5:55 AM 48.2 °F - 48.2 °F 100% 29.81 in 9.0 mi SE 3.5 mph - N/A   Overcast
6:15 AM 48.2 °F - 48.2 °F 100% 29.81 in 10.0 mi Calm Calm - N/A   Overcast
6:35 AM 48.2 °F - 46.4 °F 93% 29.81 in 10.0 mi ESE 3.5 mph - N/A   Overcast
6:55 AM 48.2 °F - 46.4 °F 93% 29.81 in 10.0 mi SE 3.5 mph - N/A   Overcast
7:15 AM 48.2 °F - 48.2 °F 100% 29.81 in 10.0 mi ENE 3.5 mph - N/A   Mostly Cloudy
7:35 AM 48.2 °F - 46.4 °F 93% 29.81 in 10.0 mi Calm Calm - N/A   Partly Cloudy
7:55 AM 46.4 °F - 46.4 °F 100% 29.81 in 9.0 mi Calm Calm - N/A   Scattered Clouds
8:15 AM 48.2 °F - 46.4 °F 93% 29.81 in 10.0 mi West 3.5 mph - N/A   Mostly Cloudy
8:35 AM 46.4 °F 45.2 °F 44.6 °F 93% 29.82 in 10.0 mi SSE 3.5 mph - N/A   Mostly Cloudy
8:55 AM 46.4 °F - 46.4 °F 100% 29.83 in 9.0 mi Calm Calm - N/A   Overcast
9:15 AM 48.2 °F - 46.4 °F 93% 29.83 in 10.0 mi Calm Calm - N/A   Overcast
9:35 AM 50.0 °F - 44.6 °F 82% 29.83 in 10.0 mi SW 3.5 mph - N/A   Scattered Clouds
10:15 AM 55.4 °F - 44.6 °F 67% 29.84 in 10.0 mi SW 5.8 mph - N/A   Mostly Cloudy
10:35 AM 57.2 °F - 42.8 °F 59% 29.84 in 10.0 mi West 6.9 mph - N/A   Scattered Clouds
10:55 AM 57.2 °F - 41.0 °F 55% 29.84 in 10.0 mi West 6.9 mph - N/A   Clear
11:15 AM 57.2 °F - 41.0 °F 55% 29.84 in 10.0 mi West 4.6 mph - N/A   Clear
11:35 AM 57.2 °F - 39.2 °F 51% 29.84 in 10.0 mi NW 3.5 mph - N/A   Partly Cloudy
11:55 AM 57.2 °F - 39.2 °F 51% 29.83 in 10.0 mi North 6.9 mph - N/A   Mostly Cloudy
12:15 PM 57.2 °F - 39.2 °F 51% 29.84 in 10.0 mi NNE 5.8 mph - N/A   Overcast
12:35 PM 57.2 °F - 39.2 °F 51% 29.84 in 10.0 mi North 4.6 mph - N/A   Overcast
12:55 PM 59.0 °F - 37.4 °F 45% 29.83 in 10.0 mi WNW 8.1 mph 23.0 mph N/A   Mostly Cloudy
1:15 PM 60.8 °F - 35.6 °F 39% 29.82 in 10.0 mi WNW 8.1 mph - N/A   Mostly Cloudy
1:35 PM 60.8 °F - 35.6 °F 39% 29.82 in 10.0 mi NNW 9.2 mph - N/A   Mostly Cloudy
1:55 PM 59.0 °F - 33.8 °F 39% 29.81 in 10.0 mi NW 9.2 mph - N/A   Mostly Cloudy
2:35 PM 59.0 °F - 32.0 °F 36% 29.81 in 10.0 mi WNW 13.8 mph - N/A   Mostly Cloudy
2:55 PM 60.8 °F - 32.0 °F 34% 29.80 in 10.0 mi WNW 8.1 mph - N/A   Overcast
3:15 PM 62.6 °F - 32.0 °F 32% 29.79 in 10.0 mi WNW 8.1 mph 18.4 mph N/A   Overcast
3:35 PM 62.6 °F - 32.0 °F 32% 29.79 in 10.0 mi NNW 8.1 mph - N/A   Mostly Cloudy
3:55 PM 62.6 °F - 32.0 °F 32% 29.80 in 10.0 mi NNW 9.2 mph 17.3 mph N/A   Scattered Clouds
4:35 PM 59.0 °F - 33.8 °F 39% 29.79 in 10.0 mi North 10.4 mph - N/A   Scattered Clouds
4:55 PM 59.0 °F - 35.6 °F 42% 29.80 in 10.0 mi NNW 11.5 mph - N/A   Partly Cloudy
5:15 PM 59.0 °F - 33.8 °F 39% 29.79 in 10.0 mi North 9.2 mph - N/A   Clear
5:35 PM 57.2 °F - 35.6 °F 44% 29.80 in 10.0 mi NNW 9.2 mph - N/A   Clear
5:55 PM 55.4 °F - 35.6 °F 47% 29.81 in 10.0 mi NNW 9.2 mph 16.1 mph N/A   Clear
6:15 PM 55.4 °F - 33.8 °F 44% 29.80 in 10.0 mi NNW 10.4 mph - N/A   Clear
6:35 PM 53.6 °F - 32.0 °F 44% 29.81 in 10.0 mi NNW 12.7 mph 19.6 mph N/A   Clear
6:55 PM 53.6 °F - 32.0 °F 44% 29.82 in 10.0 mi NNW 9.2 mph - N/A   Clear
7:15 PM 51.8 °F - 32.0 °F 47% 29.81 in 10.0 mi NW 10.4 mph - N/A   Clear
7:35 PM 51.8 °F - 32.0 °F 47% 29.82 in 10.0 mi NW 6.9 mph - N/A   Clear
7:55 PM 50.0 °F - 32.0 °F 50% 29.82 in 10.0 mi NNW 9.2 mph - N/A   Clear
8:35 PM 50.0 °F - 30.2 °F 47% 29.84 in 10.0 mi NW 11.5 mph - N/A   Partly Cloudy
8:55 PM 50.0 °F - 28.4 °F 43% 29.84 in 10.0 mi NW 8.1 mph - N/A   Clear
9:15 PM 48.2 °F - 28.4 °F 46% 29.84 in 10.0 mi WNW 9.2 mph - N/A   Partly Cloudy
9:35 PM 48.2 °F - 30.2 °F 50% 29.85 in 10.0 mi WNW 9.2 mph - N/A   Partly Cloudy
9:55 PM 48.2 °F - 32.0 °F 54% 29.85 in 10.0 mi West 9.2 mph - N/A   Partly Cloudy
10:15 PM 46.4 °F 42.4 °F 32.0 °F 57% 29.85 in 10.0 mi WNW 8.1 mph - N/A   Scattered Clouds
10:35 PM 46.4 °F 41.1 °F 30.2 °F 53% 29.85 in 10.0 mi WNW 11.5 mph - N/A   Mostly Cloudy
10:55 PM 46.4 °F 41.5 °F 28.4 °F 50% 29.85 in 10.0 mi WNW 10.4 mph - N/A   Mostly Cloudy
11:15 PM 46.4 °F 41.5 °F 28.4 °F 50% 29.86 in 10.0 mi WNW 10.4 mph - N/A   Mostly Cloudy
11:35 PM 44.6 °F 40.2 °F 28.4 °F 53% 29.86 in 10.0 mi WNW 8.1 mph - N/A   Partly Cloudy
11:55 PM 44.6 °F 39.7 °F 28.4 °F 53% 29.85 in 10.0 mi WNW 9.2 mph - N/A   Clear